Flag for Canada Weather past 2 weeks in Moncton, New Brunswick, Canada

Now
52 °F

Partly sunny.


Feels Like: 47 °F
Forecast: 45 / 70 °F
Wind: 14 mph from Southwest

Location: Moncton

Current Time: May 24, 2015 at 9:03:26 AM

Latest Report: May 24, 2015 at 8:00 AM


Visibility: 15 mi

Pressure: 30.01 "Hg

Humidity: 41%

Dew point: 28 °F

Location of MonctonLocation

Historic Weather in Moncton — Graph

°F

Moncton temperature yesterday

Maximum temperature yesterday: 54 °F (at 3:00 PM)
Minimum temperature yesterday: 36 °F (at 6:00 AM)
Average temperature yesterday: 47 °F

Past Weeks' High & Low Weather Summary

 TemperatureHumidityPressure
High75 °F (May 16, 3:00 PM)100% (May 10, 9:00 AM)30.40 "Hg (May 10, 9:00 AM)
Low34 °F (May 14, 4:00 AM)19% (May 16, 3:00 PM)29.41 "Hg (May 20, 5:00 PM)
Average52 °F67%29.98 "Hg
* Reported May 9 7:00 AM — May 24 7:00 AM, Moncton, Weather by CustomWeather, © 2015

Note: Actual official high and low records may vary slightly from our data, if they occured in-between our weather recording intervals... More about our weather records

Advertising

Moncton weather history for previous 24 hours

 ConditionsComfort  
Time TempWeatherWind HumidityBarometerVisibility
7:00 AM
Sun, May 24
46 °FPartly sunny.13 mph46%30.03 "Hg15 mi
6:00 AM41 °FPassing clouds.9 mph57%30.04 "Hg15 mi
5:00 AM39 °FPassing clouds.9 mph61%30.05 "Hg15 mi
4:00 AM39 °FPassing clouds.8 mph56%30.06 "Hg15 mi
3:00 AM37 °FPassing clouds.8 mph60%30.07 "Hg15 mi
2:00 AM41 °FClear.10 mph53%30.08 "Hg15 mi
1:00 AM41 °FClear.12 mph57%30.09 "Hg15 mi
12:00 AM43 °FClear.10 mph53%30.08 "Hg15 mi
11:00 PM
Sat, May 23
45 °FClear.12 mph49%30.06 "Hg15 mi
10:00 PM48 °FPassing clouds.13 mph37%30.05 "Hg15 mi
9:00 PM48 °FPassing clouds.14 mph40%30.02 "Hg15 mi
8:00 PM52 °FScattered clouds.17 mph35%30.00 "Hg15 mi
7:00 PM54 °FPartly sunny.22 mph30%29.97 "Hg15 mi
6:00 PM54 °FScattered clouds.18 mph30%29.95 "Hg15 mi
5:00 PM52 °FBroken clouds.16 mph54%29.93 "Hg15 mi
4:46 PM50 °FSprinkles. Broken clouds.24 mph50%29.93 "Hg15 mi
4:00 PM54 °FBroken clouds.20 mph47%29.92 "Hg15 mi
3:00 PM54 °FBroken clouds.25 mph38%29.90 "Hg15 mi
2:00 PM50 °FPartly sunny.14 mph35%29.91 "Hg15 mi
1:00 PM48 °FPartly sunny.14 mph37%29.91 "Hg15 mi
12:00 PM48 °FPartly sunny.10 mph46%29.92 "Hg15 mi
11:00 AM46 °FPartly sunny.14 mph53%29.93 "Hg15 mi
10:00 AM45 °FPartly sunny.15 mph61%29.93 "Hg15 mi
9:00 AM46 °FPartly sunny.17 mph53%29.91 "Hg15 mi
Weather by CustomWeather, © 2015

See weather overviewHow to use our weather pages